�������l�o���
Date,Time,MP-1(��Sv/h),MP-2(��Sv/h),MP-3(��Sv/h),MP-4(��Sv/h),MP-5(��Sv/h),MP-6(��Sv/h),MP-7(��Sv/h),MP-8(��Sv/h),����,����(m/s),���J
2020/07/13,00:00,0.649,0.920,0.586,1.117,0.795,0.386,0.659,0.626,�k�k��,3.0,��
2020/07/13,00:10,0.646,0.922,0.586,1.117,0.791,0.386,0.658,0.624,�k�k��,3.5,��
2020/07/13,00:20,0.647,0.920,0.586,1.119,0.792,0.386,0.658,0.625,�k,3.2,��
2020/07/13,00:30,0.648,0.921,0.586,1.118,0.793,0.385,0.660,0.627,�k,3.4,��
2020/07/13,00:40,0.649,0.920,0.587,1.117,0.792,0.385,0.659,0.623,�k,3.1,��
2020/07/13,00:50,0.646,0.920,0.587,1.117,0.792,0.384,0.658,0.626,�k,3.4,�L
2020/07/13,01:00,0.647,0.919,0.586,1.117,0.793,0.384,0.658,0.625,�k,3.2,�L
2020/07/13,01:10,0.648,0.921,0.586,1.119,0.793,0.385,0.659,0.626,�k,3.1,�L
2020/07/13,01:20,0.648,0.921,0.584,1.118,0.794,0.386,0.659,0.626,�k,3.4,�L
2020/07/13,01:30,0.647,0.920,0.585,1.117,0.790,0.386,0.659,0.625,�k,2.8,�L
2020/07/13,01:40,0.646,0.920,0.587,1.118,0.792,0.386,0.660,0.624,�k,3.0,�L
2020/07/13,01:50,0.646,0.921,0.587,1.118,0.790,0.385,0.659,0.627,�k�k��,3.4,�L
2020/07/13,02:00,0.649,0.921,0.588,1.115,0.793,0.386,0.662,0.625,�k�k��,3.8,�L
2020/07/13,02:10,0.648,0.920,0.585,1.116,0.791,0.386,0.659,0.624,�k�k��,3.1,�L
2020/07/13,02:20,0.648,0.920,0.585,1.115,0.794,0.387,0.660,0.626,�k�k��,3.0,�L
2020/07/13,02:30,0.648,0.919,0.586,1.118,0.792,0.388,0.659,0.626,�k�k��,3.7,�L
2020/07/13,02:40,0.648,0.921,0.587,1.117,0.793,0.385,0.660,0.626,�k,3.2,�L
2020/07/13,02:50,0.647,0.920,0.586,1.117,0.792,0.387,0.660,0.625,�k,3.2,�L
2020/07/13,03:00,0.648,0.920,0.586,1.119,0.791,0.386,0.660,0.624,�k,3.7,��
2020/07/13,03:10,0.647,0.920,0.588,1.118,0.792,0.385,0.660,0.625,�k�k��,3.8,��
2020/07/13,03:20,0.648,0.919,0.586,1.119,0.793,0.386,0.661,0.625,�k�k��,3.9,��
2020/07/13,03:30,0.647,0.920,0.587,1.118,0.793,0.385,0.662,0.626,�k�k��,3.1,��
2020/07/13,03:40,0.647,0.919,0.586,1.117,0.791,0.386,0.661,0.624,�k�k��,2.9,��
2020/07/13,03:50,0.648,0.922,0.585,1.119,0.792,0.385,0.661,0.623,�k�k��,2.6,��
2020/07/13,04:00,0.647,0.920,0.586,1.118,0.793,0.384,0.661,0.625,�k�k��,3.4,��
2020/07/13,04:10,0.647,0.920,0.585,1.118,0.792,0.386,0.662,0.625,�k�k��,3.2,��
2020/07/13,04:20,0.646,0.920,0.584,1.119,0.794,0.384,0.662,0.624,�k�k��,3.4,��
2020/07/13,04:30,0.647,0.920,0.585,1.118,0.794,0.386,0.661,0.625,�k�k��,3.1,��
2020/07/13,04:40,0.646,0.920,0.586,1.120,0.793,0.386,0.660,0.625,�k�k��,3.2,��
2020/07/13,04:50,0.647,0.920,0.586,1.117,0.793,0.385,0.662,0.624,�k�k��,2.6,��
2020/07/13,05:00,0.647,0.919,0.585,1.119,0.792,0.385,0.661,0.625,�k��,2.6,��
2020/07/13,05:10,0.647,0.918,0.587,1.116,0.793,0.386,0.661,0.624,�k��,2.5,��
2020/07/13,05:20,0.647,0.918,0.586,1.118,0.791,0.385,0.661,0.624,�k�k��,2.3,��
2020/07/13,05:30,0.647,0.919,0.586,1.119,0.792,0.387,0.660,0.624,�k�k��,2.6,��
2020/07/13,05:40,0.646,0.920,0.586,1.118,0.793,0.385,0.660,0.623,�k�k��,2.2,��
2020/07/13,05:50,0.648,0.920,0.585,1.119,0.793,0.385,0.660,0.624,�k�k��,2.2,��
2020/07/13,06:00,0.647,0.919,0.586,1.120,0.792,0.386,0.660,0.624,�k�k��,2.6,��
2020/07/13,06:10,0.648,0.920,0.589,1.117,0.792,0.386,0.660,0.625,�k�k��,2.0,��
2020/07/13,06:20,0.647,0.919,0.585,1.118,0.796,0.385,0.660,0.623,�k�k��,2.0,��
2020/07/13,06:30,0.647,0.921,0.585,1.119,0.793,0.386,0.660,0.623,�k�k��,2.3,��
2020/07/13,06:40,0.646,0.921,0.586,1.119,0.793,0.386,0.661,0.624,�k�k��,1.7,��
2020/07/13,06:50,0.647,0.921,0.586,1.119,0.792,0.387,0.660,0.623,�k�k��,1.7,��
2020/07/13,07:00,0.647,0.920,0.586,1.119,0.795,0.385,0.660,0.625,�k�k��,1.5,��
2020/07/13,07:10,0.648,0.919,0.588,1.118,0.793,0.386,0.659,0.621,�k�k��,2.0,��
2020/07/13,07:20,0.648,0.921,0.586,1.118,0.794,0.385,0.661,0.623,�k�k��,1.5,��
2020/07/13,07:30,0.647,0.921,0.587,1.119,0.795,0.385,0.662,0.623,�k,1.7,��
2020/07/13,07:40,0.648,0.921,0.587,1.119,0.793,0.386,0.658,0.624,�k,1.4,��
2020/07/13,07:50,0.647,0.922,0.587,1.119,0.792,0.385,0.660,0.623,�k,0.8,��
2020/07/13,08:00,0.648,0.919,0.588,1.120,0.794,0.386,0.661,0.624,�k,1.5,��
2020/07/13,08:10,0.646,0.919,0.588,1.122,0.793,0.386,0.662,0.624,�k�k��,1.2,��
2020/07/13,08:20,0.646,0.919,0.586,1.121,0.793,0.386,0.661,0.624,�k�k��,1.7,��
2020/07/13,08:30,0.646,0.918,0.586,1.119,0.791,0.385,0.661,0.623,���k��,1.5,��
2020/07/13,08:40,0.645,0.916,0.588,1.120,0.793,0.386,0.663,0.623,�k��,1.7,��
2020/07/13,08:50,0.646,0.916,0.587,1.118,0.795,0.386,0.660,0.624,�k�k��,1.7,��
2020/07/13,09:00,0.646,0.917,0.587,1.119,0.796,0.383,0.660,0.624,�k��,1.5,��
2020/07/13,09:10,0.647,0.915,0.588,1.118,0.791,0.385,0.661,0.624,���k��,1.4,��
2020/07/13,09:20,0.646,0.914,0.585,1.120,0.794,0.385,0.661,0.623,���k��,1.7,��
2020/07/13,09:30,0.648,0.915,0.586,1.120,0.792,0.384,0.663,0.623,��,1.9,��
2020/07/13,09:40,0.646,0.916,0.589,1.119,0.794,0.383,0.660,0.624,��,2.0,��
2020/07/13,09:50,0.645,0.916,0.586,1.121,0.795,0.385,0.661,0.625,��,2.0,��
2020/07/13,10:00,0.646,0.914,0.586,1.121,0.794,0.384,0.663,0.624,��,2.3,��
2020/07/13,10:10,0.649,0.914,0.589,1.121,0.793,0.386,0.662,0.624,��,2.2,��
2020/07/13,10:20,0.647,0.915,0.588,1.121,0.795,0.384,0.663,0.622,��,2.6,��
2020/07/13,10:30,0.647,0.914,0.587,1.115,0.794,0.386,0.661,0.622,��,3.0,��
2020/07/13,10:40,0.648,0.918,0.586,1.119,0.793,0.385,0.662,0.623,���쓌,2.9,��
2020/07/13,10:50,0.647,0.917,0.586,1.122,0.796,0.386,0.663,0.622,��,3.3,��
2020/07/13,11:00,0.647,0.915,0.584,1.121,0.794,0.385,0.663,0.623,���쓌,2.9,��
2020/07/13,11:10,0.650,0.917,0.586,1.120,0.794,0.387,0.662,0.623,�쓌,3.5,��
2020/07/13,11:20,0.649,0.922,0.587,1.117,0.794,0.386,0.663,0.623,���쓌,3.6,��
2020/07/13,11:30,0.647,0.919,0.586,1.120,0.795,0.386,0.663,0.624,���쓌,2.6,��
2020/07/13,11:40,0.649,0.923,0.588,1.119,0.792,0.385,0.662,0.624,�쓌,3.4,��
2020/07/13,11:50,0.649,0.923,0.589,1.121,0.795,0.388,0.661,0.622,�쓌,3.1,��
2020/07/13,12:00,0.650,0.925,0.588,1.121,0.800,0.388,0.662,0.624,���쓌,3.8,��
2020/07/13,12:10,0.650,0.927,0.590,1.121,0.798,0.386,0.662,0.622,���쓌,3.1,��
2020/07/13,12:20,0.650,0.927,0.590,1.120,0.799,0.388,0.665,0.624,���쓌,3.4,��
2020/07/13,12:30,0.650,0.925,0.587,1.121,0.799,0.385,0.663,0.623,���쓌,3.5,��
2020/07/13,12:40,0.651,0.925,0.588,1.121,0.799,0.387,0.664,0.624,���쓌,3.0,��
2020/07/13,12:50,0.650,0.928,0.590,1.122,0.798,0.387,0.663,0.625,�쓌,3.1,��
2020/07/13,13:00,0.650,0.925,0.589,1.122,0.800,0.389,0.665,0.623,�쓌,3.0,��
2020/07/13,13:10,0.651,0.928,0.588,1.122,0.801,0.388,0.662,0.625,��쓌,3.5,��
2020/07/13,13:20,0.650,0.925,0.590,1.121,0.800,0.388,0.663,0.625,��쓌,4.4,��
2020/07/13,13:30,0.651,0.927,0.589,1.120,0.801,0.389,0.665,0.625,�쓌,4.8,��
2020/07/13,13:40,0.649,0.927,0.590,1.122,0.800,0.388,0.663,0.625,��쓌,5.2,��
2020/07/13,13:50,0.650,0.927,0.590,1.121,0.801,0.388,0.665,0.625,��쓌,5.3,��
2020/07/13,14:00,0.651,0.928,0.588,1.122,0.800,0.388,0.664,0.625,��쓌,5.2,��
2020/07/13,14:10,0.650,0.929,0.589,1.121,0.801,0.388,0.665,0.625,��쓌,5.6,��
2020/07/13,14:20,0.650,0.929,0.590,1.121,0.800,0.388,0.665,0.625,��쓌,5.7,��
2020/07/13,14:30,0.651,0.928,0.591,1.123,0.801,0.389,0.664,0.623,��쓌,5.8,��
2020/07/13,14:40,0.653,0.928,0.592,1.121,0.801,0.388,0.664,0.625,��쓌,5.3,��
2020/07/13,14:50,0.652,0.929,0.591,1.121,0.802,0.388,0.665,0.625,��쓌,5.0,��
2020/07/13,15:00,0.651,0.927,0.591,1.123,0.801,0.389,0.666,0.624,��쓌,5.1,��
2020/07/13,15:10,0.651,0.929,0.589,1.121,0.800,0.389,0.665,0.625,��쓌,5.6,��
2020/07/13,15:20,0.651,0.932,0.591,1.122,0.803,0.391,0.665,0.625,��쓌,5.7,��
2020/07/13,15:30,0.652,0.933,0.590,1.126,0.802,0.389,0.664,0.626,��쓌,5.8,��
2020/07/13,15:40,0.653,0.934,0.591,1.124,0.801,0.389,0.665,0.626,��쓌,6.1,��
2020/07/13,15:50,0.654,0.935,0.590,1.125,0.802,0.389,0.666,0.626,��쓌,6.1,��
2020/07/13,16:00,0.654,0.933,0.590,1.125,0.803,0.390,0.666,0.626,��쓌,6.6,��
2020/07/13,16:10,0.652,0.933,0.590,1.127,0.803,0.390,0.667,0.625,��쓌,5.9,��
2020/07/13,16:20,0.651,0.933,0.591,1.125,0.802,0.391,0.664,0.626,��쓌,6.0,��
2020/07/13,16:30,0.654,0.936,0.592,1.127,0.805,0.391,0.663,0.625,��쓌,6.2,��
2020/07/13,16:40,0.651,0.934,0.592,1.128,0.800,0.391,0.665,0.626,��쓌,7.2,��
2020/07/13,16:50,0.652,0.935,0.592,1.126,0.805,0.390,0.664,0.626,��쓌,7.1,��
2020/07/13,17:00,0.652,0.933,0.591,1.128,0.801,0.390,0.665,0.625,��쓌,6.4,��
2020/07/13,17:10,0.654,0.935,0.589,1.127,0.802,0.390,0.664,0.625,��쓌,5.4,��
2020/07/13,17:20,0.651,0.935,0.591,1.127,0.802,0.391,0.666,0.625,��쓌,7.8,��
2020/07/13,17:30,0.653,0.934,0.592,1.126,0.803,0.390,0.666,0.627,��쓌,7.5,��
2020/07/13,17:40,0.653,0.934,0.592,1.129,0.802,0.392,0.666,0.625,��쓌,6.2,��
2020/07/13,17:50,0.654,0.935,0.591,1.126,0.804,0.390,0.665,0.627,��쓌,6.6,��
2020/07/13,18:00,0.651,0.932,0.592,1.127,0.802,0.392,0.665,0.627,��,7.4,��
2020/07/13,18:10,0.651,0.937,0.593,1.129,0.801,0.392,0.665,0.627,��쓌,7.8,��
2020/07/13,18:20,0.654,0.934,0.593,1.130,0.803,0.391,0.666,0.627,��,6.4,��
2020/07/13,18:30,0.654,0.936,0.592,1.128,0.803,0.392,0.665,0.627,��,5.8,��
2020/07/13,18:40,0.652,0.934,0.593,1.128,0.803,0.390,0.666,0.627,��,6.2,��
2020/07/13,18:50,0.653,0.937,0.594,1.129,0.804,0.392,0.666,0.627,��,6.3,��
2020/07/13,19:00,0.652,0.937,0.593,1.129,0.801,0.391,0.665,0.628,��,6.3,��
2020/07/13,19:10,0.656,0.935,0.594,1.130,0.803,0.391,0.665,0.627,��,6.3,��
2020/07/13,19:20,0.655,0.937,0.593,1.131,0.803,0.391,0.667,0.628,��,7.6,��
2020/07/13,19:30,0.654,0.937,0.595,1.128,0.804,0.390,0.667,0.628,��,7.3,��
2020/07/13,19:40,0.654,0.935,0.593,1.132,0.804,0.391,0.664,0.628,��,7.1,��
2020/07/13,19:50,0.654,0.937,0.595,1.128,0.803,0.392,0.666,0.630,��,6.3,��
2020/07/13,20:00,0.654,0.935,0.595,1.130,0.805,0.392,0.665,0.629,��,6.3,��
2020/07/13,20:10,0.655,0.937,0.595,1.130,0.804,0.393,0.664,0.630,��,6.9,��
2020/07/13,20:20,0.655,0.938,0.594,1.130,0.806,0.393,0.667,0.629,��,5.7,��
2020/07/13,20:30,0.654,0.940,0.595,1.132,0.804,0.393,0.668,0.628,��,5.2,��
2020/07/13,20:40,0.655,0.940,0.595,1.132,0.806,0.394,0.667,0.630,��,6.2,��
2020/07/13,20:50,0.655,0.937,0.594,1.129,0.804,0.393,0.666,0.628,��,5.7,��
2020/07/13,21:00,0.656,0.936,0.594,1.129,0.807,0.394,0.668,0.628,��,5.0,��
2020/07/13,21:10,0.656,0.939,0.594,1.131,0.806,0.393,0.665,0.631,��,5.2,��
2020/07/13,21:20,0.656,0.938,0.595,1.130,0.807,0.392,0.668,0.630,��,5.4,��
2020/07/13,21:30,0.657,0.938,0.594,1.130,0.806,0.393,0.667,0.629,��,5.3,��
2020/07/13,21:40,0.657,0.937,0.595,1.132,0.806,0.394,0.667,0.631,��,5.7,��
2020/07/13,21:50,0.658,0.936,0.594,1.130,0.806,0.393,0.667,0.628,��,5.7,��
2020/07/13,22:00,0.658,0.937,0.593,1.129,0.809,0.392,0.668,0.629,��,5.7,��
2020/07/13,22:10,0.655,0.935,0.594,1.130,0.806,0.394,0.669,0.630,��,6.2,��
2020/07/13,22:20,0.658,0.938,0.594,1.132,0.808,0.394,0.667,0.629,��,6.3,��
2020/07/13,22:30,0.656,0.939,0.596,1.132,0.810,0.394,0.667,0.630,��,6.2,��
2020/07/13,22:40,0.657,0.939,0.594,1.130,0.807,0.394,0.667,0.630,��,5.8,��
2020/07/13,22:50,0.656,0.940,0.596,1.130,0.807,0.392,0.668,0.630,��,5.6,��
2020/07/13,23:00,0.656,0.935,0.594,1.130,0.807,0.392,0.667,0.629,��,4.7,��
2020/07/13,23:10,0.656,0.937,0.595,1.130,0.808,0.394,0.667,0.628,��,4.8,��
2020/07/13,23:20,0.656,0.939,0.594,1.132,0.807,0.393,0.667,0.630,��,4.9,��
2020/07/13,23:30,0.658,0.936,0.596,1.129,0.807,0.392,0.667,0.629,��,5.1,��
2020/07/13,23:40,0.657,0.936,0.594,1.132,0.808,0.393,0.667,0.629,��,6.6,��
2020/07/13,23:50,0.659,0.935,0.596,1.129,0.809,0.393,0.668,0.630,��쓌,7.3,��
